Visibility
4.1 2.7 4.1 15.0 15.0 15.0 15.0 15.0 15.0 15.0 15.0 15.0 8.5 5.6 4.7 7.8 8.4 12.9 15.0 14.5 4.7 15.0 10.7 14.9 15.0 15.0 15.0 15.0 15.0 15.0 14.3 15.0 15.0 12.7 3.7 9.5 2.3 5.0 8.8 6.8 5.8 5.0 1.1 0.8 6.4 0.6 0.3 15.0 15.0 9.4 6.6 15.0 15.0 15.0
4.4 2.9 4.6 6.8 10.6 15.0 15.0 9.9 7.8 6.9 8.4 5.6 7.7 13.4 14.7 11.3 15.0 15.0 10.5 14.5 14.1 13.5 14.4 15.0 15.0 15.0 15.0 15.0 15.0 15.0 15.0 15.0 15.0 15.0 11.7 1.3 15.0 15.0 4.8 4.8 15.0 4.7 14.3 0.3 14.9 1.1 14.4 14.8 14.4 15.0 15.0 15.0 15.0 15.0
4.8 3.5 3.8 5.3 6.2 8.2 8.3 8.4 7.9 7.8 10.9 7.9 8.3 14.5 14.7 10.4 13.7 7.7 8.8 15.0 15.0 15.0 15.0 15.0 15.0 15.0 15.0 15.0 15.0 15.0 15.0 15.0 15.0 10.5 15.0 15.0 14.2 14.9 6.0 5.1 12.6 15.0 15.0 14.5 13.1 7.3 13.7 13.8 15.0 15.0 15.0 15.0 15.0 15.0
5.5 4.2 3.9 3.1 3.5 3.9 4.5 4.6 7.3 7.8 6.7 5.6 6.2 6.2 5.6 14.3 15.0 15.0 15.0 15.0 15.0 15.0 15.0 15.0 15.0 15.0 15.0 15.0 15.0 15.0 15.0 15.0 15.0 15.0 15.0 15.0 15.0 14.3 13.6 9.0 15.0 11.7 15.0 12.7 6.5 11.0 15.0 13.8 15.0 14.9 15.0 15.0 15.0 15.0
14.2 8.3 7.0 6.0 5.1 4.9 4.6 3.8 4.6 5.3 6.0 9.8 13.7 15.0 15.0 15.0 15.0 15.0 15.0 15.0 15.0 15.0 15.0 15.0 15.0 15.0 15.0 15.0 15.0 15.0 15.0 15.0 15.0 15.0 15.0 14.8 15.0 15.0 15.0 15.0 15.0 15.0 11.8 9.5 0.2 15.0 14.6 11.7 14.7 15.0 15.0 15.0 15.0 15.0
15.0 15.0 14.9 15.0 15.0 15.0 15.0 15.0 15.0 15.0 15.0 15.0 15.0 15.0 15.0 15.0 15.0 15.0 0.6 15.0 15.0 15.0 15.0 15.0 15.0 15.0 15.0 15.0 15.0 15.0 15.0 15.0 15.0 14.7 15.0 11.8 15.0 14.5 14.8 4.6 14.5 15.0 15.0 15.0 15.0 15.0 15.0 15.0 15.0 15.0 15.0 15.0 15.0 15.0
15.0 15.0 15.0 15.0 15.0 15.0 15.0 15.0 15.0 15.0 15.0 15.0 15.0 15.0 15.0 15.0 15.0 15.0 15.0 15.0 12.9 15.0 15.0 15.0 15.0 15.0 15.0 15.0 15.0 15.0 15.0 15.0 15.0 15.0 15.0 15.0 14.9 15.0 15.0 12.0 12.0 14.4 14.8 15.0 15.0 15.0 2.4 14.3 6.7 15.0 15.0 15.0 15.0 15.0
15.0 15.0 15.0 15.0 15.0 15.0 15.0 15.0 15.0 15.0 15.0 15.0 15.0 15.0 15.0 15.0 15.0 15.0 15.0 15.0 15.0 15.0 15.0 15.0 8.5 15.0 15.0 15.0 15.0 15.0 15.0 15.0 15.0 15.0 15.0 15.0 15.0 14.6 15.0 2.1 15.0 14.4 15.0 15.0 15.0 15.0 15.0 15.0 15.0 15.0 15.0 15.0 15.0 15.0
15.0 15.0 15.0 15.0 15.0 15.0 15.0 15.0 15.0 15.0 15.0 15.0 15.0 15.0 15.0 15.0 15.0 15.0 15.0 15.0 15.0 15.0 15.0 15.0 15.0 7.6 15.0 15.0 15.0 15.0 15.0 15.0 15.0 15.0 15.0 15.0 15.0 12.2 5.4 13.5 15.0 15.0 15.0 15.0 15.0 15.0 15.0 15.0 15.0 15.0 15.0 15.0 15.0 15.0
15.0 15.0 15.0 15.0 15.0 15.0 15.0 15.0 15.0 15.0 15.0 15.0 15.0 15.0 0.1 15.0 15.0 15.0 15.0 15.0 14.8 15.0 15.0 14.9 15.0 15.0 15.0 15.0 15.0 15.0 15.0 15.0 15.0 15.0 15.0 15.0 15.0 15.0 15.0 15.0 15.0 15.0 15.0 15.0 15.0 15.0 15.0 15.0 15.0 15.0 15.0 15.0 15.0 15.0
15.0 15.0 15.0 15.0 15.0 15.0 15.0 15.0 15.0 15.0 15.0 15.0 15.0 8.3 15.0 15.0 15.0 15.0 15.0 15.0 15.0 15.0 14.9 13.2 15.0 11.2 15.0 12.8 15.0 15.0 15.0 15.0 15.0 7.3 12.1 12.4 14.2 15.0 15.0 15.0 15.0 15.0 15.0 15.0 15.0 15.0 15.0 15.0 15.0 15.0 15.0 15.0 15.0 15.0
15.0 15.0 15.0 15.0 15.0 15.0 15.0 15.0 15.0 15.0 15.0 15.0 15.0 15.0 15.0 15.0 15.0 8.7 15.0 15.0 15.0 7.6 11.4 15.0 14.6 15.0 15.0 13.9 15.0 12.0 8.5 15.0 2.1 14.1 12.5 8.9 10.3 15.0 15.0 15.0 15.0 15.0 15.0 15.0 15.0 15.0 15.0 15.0 15.0 15.0 15.0 15.0 15.0 15.0
15.0 15.0 15.0 15.0 15.0 15.0 15.0 15.0 15.0 15.0 15.0 15.0 15.0 5.0 15.0 15.0 9.0 15.0 15.0 14.6 6.6 13.2 4.1 14.8 2.0 10.8 15.0 15.0 11.2 10.2 13.5 3.6 15.0 13.4 4.1 0.9 15.0 15.0 15.0 15.0 15.0 15.0 15.0 15.0 15.0 15.0 15.0 15.0 15.0 15.0 15.0 15.0 15.0 15.0
15.0 15.0 15.0 15.0 15.0 15.0 15.0 15.0 15.0 15.0 15.0 15.0 1.7 15.0 14.8 11.6 10.4 3.1 2.5 4.4 11.6 15.0 15.0 15.0 15.0 15.0 12.7 11.4 14.5 6.3 9.7 9.4 6.4 4.4 3.4 10.7 15.0 15.0 0.5 15.0 15.0 15.0 15.0 15.0 15.0 15.0 15.0 15.0 15.0 15.0 15.0 15.0 15.0 15.0
15.0 15.0 15.0 15.0 15.0 15.0 15.0 15.0 15.0 15.0 15.0 5.7 15.0 5.8 1.6 1.5 1.6 0.8 9.7 4.5 12.4 15.0 15.0 15.0 15.0 15.0 15.0 6.9 10.4 15.0 12.1 8.7 11.9 2.5 3.7 15.0 15.0 9.6 0.1 0.2 15.0 15.0 15.0 15.0 15.0 15.0 15.0 15.0 15.0 13.4 15.0 15.0 15.0 15.0
15.0 15.0 15.0 15.0 15.0 15.0 15.0 15.0 15.0 15.0 15.0 15.0 5.1 1.2 0.1 3.7 0.1 0.1 0.1 0.1 14.6 15.0 15.0 15.0 15.0 15.0 13.9 14.6 15.0 13.5 15.0 9.1 1.2 14.4 13.9 15.0 10.3 0.1 0.1 0.5 13.7 15.0 14.5 10.9 15.0 15.0 15.0 15.0 15.0 15.0 15.0 15.0 15.0 15.0
15.0 15.0 15.0 15.0 15.0 15.0 15.0 15.0 15.0 0.2 13.7 9.3 0.3 0.0 0.0 0.1 0.0 0.1 0.0 14.2 15.0 15.0 6.8 15.0 15.0 15.0 15.0 12.5 12.8 10.3 1.3 14.1 15.0 15.0 15.0 15.0 15.0 0.1 0.1 0.1 0.2 2.1 7.8 2.4 15.0 15.0 15.0 15.0 15.0 15.0 15.0 15.0 15.0 15.0
15.0 15.0 15.0 15.0 15.0 15.0 15.0 15.0 15.0 15.0 1.6 0.3 1.1 0.0 2.0 0.0 0.1 0.1 9.3 15.0 15.0 15.0 14.3 15.0 15.0 14.9 5.9 7.9 1.3 2.6 15.0 14.0 15.0 15.0 15.0 15.0 3.0 1.9 1.9 0.2 0.1 0.2 0.1 0.1 0.2 15.0 15.0 15.0 15.0 15.0 15.0 15.0 15.0 15.0
15.0 15.0 15.0 15.0 15.0 15.0 7.0 15.0 15.0 11.2 0.3 2.7 1.4 8.9 10.4 0.1 6.1 14.4 15.0 15.0 15.0 15.0 12.6 15.0 9.0 5.6 4.8 7.2 14.4 0.9 12.6 15.0 15.0 15.0 14.1 15.0 15.0 15.0 11.8 2.6 0.2 0.1 0.1 0.6 15.0 15.0 15.0 15.0 15.0 15.0 15.0 15.0 15.0 15.0
15.0 15.0 15.0 15.0 15.0 15.0 15.0 15.0 15.0 14.7 5.8 1.2 3.4 6.0 8.9 11.9 15.0 0.1 15.0 15.0 15.0 15.0 15.0 15.0 9.5 7.0 9.6 14.5 14.6 15.0 15.0 14.2 15.0 15.0 15.0 15.0 15.0 15.0 15.0 15.0 15.0 11.0 10.9 15.0 15.0 15.0 15.0 15.0 15.0 15.0 15.0 15.0 15.0 15.0
15.0 15.0 15.0 15.0 15.0 15.0 15.0 14.1 15.0 7.8 8.8 4.5 15.0 6.8 5.2 5.4 5.2 8.5 15.0 15.0 15.0 15.0 15.0 15.0 0.4 14.9 15.0 3.5 15.0 15.0 15.0 15.0 15.0 15.0 15.0 15.0 15.0 15.0 15.0 15.0 15.0 15.0 15.0 15.0 15.0 15.0 15.0 15.0 15.0 15.0 15.0 15.0 15.0 15.0
15.0 15.0 15.0 15.0 15.0 15.0 15.0 12.5 10.7 12.5 4.3 15.0 12.0 15.0 11.2 7.2 5.7 6.2 15.0 15.0 15.0 10.3 15.0 15.0 15.0 15.0 15.0 15.0 15.0 15.0 15.0 15.0 15.0 15.0 15.0 15.0 15.0 15.0 15.0 15.0 15.0 15.0 15.0 14.9 15.0 15.0 15.0 15.0 15.0 15.0 15.0 7.8 6.4 9.6
15.0 15.0 15.0 15.0 15.0 15.0 12.5 9.8 8.4 15.0 5.3 10.4 15.0 15.0 15.0 15.0 12.5 15.0 15.0 15.0 14.8 15.0 15.0 15.0 15.0 15.0 15.0 15.0 15.0 15.0 15.0 15.0 15.0 15.0 15.0 15.0 15.0 14.9 15.0 15.0 15.0 13.4 14.2 15.0 15.0 15.0 15.0 15.0 15.0 11.2 3.2 9.2 1.3 4.2
15.0 15.0 15.0 15.0 15.0 6.8 13.7 7.6 14.6 14.5 13.8 14.1 15.0 14.6 15.0 13.8 15.0 15.0 15.0 15.0 15.0 15.0 15.0 15.0 15.0 15.0 15.0 15.0 15.0 15.0 15.0 15.0 15.0 15.0 15.0 15.0 15.0 15.0 15.0 15.0 15.0 15.0 14.5 15.0 15.0 15.0 15.0 15.0 14.0 1.7 10.1 2.4 1.5 0.8
11.8 15.0 15.0 15.0 15.0 15.0 7.1 4.0 6.3 14.8 9.9 15.0 15.0 15.0 15.0 15.0 15.0 15.0 15.0 15.0 15.0 15.0 15.0 15.0 15.0 15.0 15.0 15.0 14.8 15.0 15.0 15.0 15.0 15.0 15.0 15.0 15.0 15.0 15.0 15.0 15.0 13.4 9.9 13.3 3.9 2.7 5.6 1.9 7.4 8.2 6.0 0.4 0.5 0.6
15.0 15.0 15.0 15.0 15.0 15.0 12.8 7.0 5.9 6.5 10.9 15.0 13.1 15.0 15.0 14.7 15.0 15.0 15.0 13.0 11.4 15.0 15.0 7.4 12.6 15.0 15.0 15.0 11.6 15.0 15.0 15.0 15.0 15.0 15.0 15.0 15.0 15.0 12.6 13.4 3.7 1.4 13.2 1.2 1.4 0.5 0.2 4.1 1.8 0.8 0.2 0.2 0.4 3.1
15.0 15.0 15.0 15.0 14.8 15.0 15.0 12.0 14.6 8.1 7.3 8.2 6.5 11.8 15.0 13.4 14.6 8.9 15.0 15.0 15.0 15.0 15.0 14.3 15.0 15.0 13.7 15.0 15.0 15.0 15.0 15.0 15.0 15.0 15.0 15.0 15.0 15.0 9.3 2.0 4.7 10.4 15.0 10.1 12.8 1.5 1.7 0.5 0.3 0.2 0.3 0.4 3.9 15.0
15.0 15.0 10.8 15.0 15.0 12.1 5.8 6.2 8.3 12.9 6.2 5.8 9.1 3.9 10.3 9.3 1.5 14.0 15.0 15.0 14.3 15.0 14.9 14.6 15.0 15.0 15.0 15.0 15.0 15.0 15.0 15.0 15.0 15.0 15.0 15.0 15.0 15.0 15.0 14.9 15.0 15.0 14.0 8.5 5.9 3.0 0.9 0.4 0.4 0.6 0.7 2.8 3.7 15.0
15.0 14.6 14.7 5.0 14.8 14.8 10.9 6.2 5.8 13.2 15.0 13.8 3.3 1.9 9.0 15.0 15.0 15.0 15.0 15.0 15.0 15.0 15.0 15.0 6.5 12.7 5.5 14.1 13.9 8.3 15.0 12.9 7.4 2.9 4.3 1.6 1.5 0.5 14.3 14.2 5.3 0.8 0.4 0.3 0.2 0.3 0.4 0.6 0.8 3.5 7.0 11.8 14.4 15.0
15.0 14.5 14.4 10.3 15.0 15.0 4.6 0.6 1.4 4.9 15.0 15.0 15.0 15.0 15.0 15.0 11.0 15.0 15.0 14.1 15.0 9.9 1.8 2.1 3.9 2.8 2.4 1.4 1.6 0.8 0.8 1.2 0.9 0.9 1.6 1.4 1.0 1.7 2.2 2.0 1.0 0.6 0.6 0.8 1.0 0.2 0.8 2.1 2.5 6.8 14.6 15.0 15.0 15.0
14.2 15.0 6.5 10.2 12.8 14.7 5.6 6.4 7.0 9.9 8.5 7.7 11.8 4.0 5.3 1.0 5.3 12.5 14.4 6.8 10.2 8.2 5.5 3.6 7.7 3.7 11.2 2.6 1.3 1.1 0.5 0.9 2.9 9.8 12.6 14.5 7.7 1.6 1.0 0.9 0.7 0.6 0.5 0.5 1.1 1.9 4.3 14.9 15.0 15.0 15.0 15.0 15.0 15.0
8.0 1.6 2.3 6.5 2.8 1.6 8.4 6.5 14.6 6.3 14.2 4.3 12.1 2.3 3.8 3.4 1.7 0.3 1.4 2.5 3.8 2.3 1.1 0.6 0.3 0.3 0.8 0.4 0.5 1.1 3.5 2.5 2.4 3.9 5.0 2.7 1.2 1.3 1.4 0.8 0.4 1.7 7.9 8.6 14.6 15.0 15.0 15.0 15.0 15.0 15.0 15.0 15.0 15.0
3.0 4.2 4.8 2.7 4.2 2.8 7.7 2.3 7.9 6.3 2.9 4.1 1.2 1.0 1.9 0.6 0.2 0.4 6.4 3.3 1.0 0.9 0.4 0.4 0.6 0.3 0.2 0.2 0.2 0.2 0.2 0.2 0.2 0.4 0.4 0.3 0.5 0.6 0.7 3.3 13.5 15.0 15.0 15.0 15.0 15.0 15.0 15.0 15.0 15.0 15.0 15.0 15.0 15.0